FW0170 Weather Reports


Display with metric or nautical units.
time (UTC)temp
F
wind
direction
speed
MPH
gust
MPH
rain 1hr
in
rain 24hr
in
rain mn
in
humidity
%
barometer
mb
20260502170507 58 338 0.0 0.0 0.00 0.06 0.06 76 1005.1
20260502164012 58 100 1.0 2.0 0.00 0.06 0.06 76 1004.7
20260502163514 58 64 1.0 2.0 0.00 0.06 0.06 76 1005.1
20260502162505 59 197 0.0 0.0 0.00 0.06 0.06 76 1005.1
20260502162005 59 156 0.0 0.0 0.00 0.06 0.06 75 1005.1
20260502161505 59 165 0.0 5.0 0.00 0.06 0.06 75 1004.7
20260502161005 59 64 1.0 5.0 0.00 0.06 0.06 74 1005.1
20260502160505 59 72 0.0 0.0 0.00 0.06 0.06 74 1005.1
20260502152006 58 24 0.0 2.0 0.00 0.06 0.06 74 1005.4
20260502151005 59 130 2.0 5.0 0.00 0.06 0.06 74 1005.4
20260502150505 59 85 3.0 5.0 0.00 0.06 0.06 74 1005.4
20260502130505 66 202 2.0 5.0 0.00 0.06 0.06 60 1006.1
20260502123505 64 193 6.0 10.0 0.00 0.06 0.06 58 1006.1
20260502123006 64 290 5.0 8.0 0.00 0.06 0.06 59 1006.1
20260502122005 64 213 1.0 5.0 0.00 0.06 0.06 63 1006.1
20260502121505 64 222 1.0 2.0 0.00 0.06 0.06 63 1006.1
20260502120505 65 260 3.0 10.0 0.00 0.06 0.06 63 1006.1
20260502115505 65 299 2.0 8.0 0.00 0.06 0.06 62 1006.1
20260502115006 65 285 2.0 5.0 0.00 0.06 0.06 61 1006.4
20260502114505 65 185 2.0 10.0 0.00 0.06 0.06 61 1006.4
20260502113506 64 206 2.0 8.0 0.00 0.06 0.06 64 1006.1
20260502113005 64 298 6.0 8.0 0.00 0.06 0.06 63 1006.4
20260502112505 64 303 3.0 5.0 0.00 0.06 0.06 63 1006.4
20260502112005 64 303 2.0 5.0 0.00 0.06 0.06 63 1006.4
20260502111505 64 309 2.0 5.0 0.00 0.06 0.06 63 1006.4
20260502111008 64 329 2.0 5.0 0.00 0.06 0.06 65 1006.4
20260502110005 63 236 3.0 13.0 0.00 0.06 0.06 65 1006.1
20260502105505 63 267 7.0 13.0 0.00 0.06 0.06 65 1006.1
20260502105005 63 221 1.0 8.0 0.00 0.06 0.06 66 1006.1
20260502104505 63 301 6.0 8.0 0.00 0.06 0.06 66 1006.1
20260502104005 63 294 3.0 8.0 0.00 0.06 0.06 66 1006.4
20260502103506 62 293 1.0 5.0 0.00 0.06 0.06 67 1006.4
20260502103015 62 309 2.0 5.0 0.00 0.06 0.06 66 1006.4
20260502102505 62 215 3.0 8.0 0.00 0.06 0.06 66 1006.4
20260502102005 61 265 5.0 8.0 0.00 0.06 0.06 67 1006.4
20260502101506 61 287 5.0 5.0 0.00 0.06 0.06 67 1006.4
20260502101005 61 287 5.0 5.0 0.00 0.06 0.06 67 1006.4
20260502091505 60 297 5.0 13.0 0.00 0.06 0.06 71 1006.8
20260502091005 60 101 3.0 5.0 0.00 0.06 0.06 71 1006.4
20260502090505 59 325 3.0 5.0 0.00 0.06 0.06 71 1006.8
20260502071506 54 213 5.0 10.0 0.00 0.06 0.06 79 1006.4
20260502071005 53 246 6.0 10.0 0.00 0.06 0.06 79 1006.4
20260502070505 53 214 6.0 10.0 0.00 0.06 0.06 81 1006.8
20260502070005 52 295 3.0 8.0 0.00 0.06 0.06 82 1006.4
20260502064505 51 235 3.0 8.0 0.00 0.06 0.06 84 1006.4
20260502064006 51 207 3.0 8.0 0.00 0.06 0.06 85 1006.4
20260502063505 51 204 3.0 5.0 0.00 0.06 0.06 85 1006.8
20260502063005 50 278 2.0 13.0 0.00 0.06 0.06 86 1006.4
20260502062505 50 239 6.0 13.0 0.00 0.06 0.06 87 1006.4
20260502062005 50 249 3.0 5.0 0.00 0.06 0.06 87 1006.4
20260502061005 50 217 6.0 13.0 0.00 0.06 0.06 87 1006.8
20260502060505 50 234 6.0 13.0 0.00 0.06 0.06 87 1006.8
20260502060005 50 209 5.0 8.0 0.00 0.06 0.06 87 1006.8
20260502055505 50 198 3.0 8.0 0.00 0.06 0.06 88 1006.8
20260502054504 49 202 1.0 8.0 0.00 0.06 0.06 88 1006.8
20260502054005 49 227 2.0 8.0 0.00 0.06 0.06 89 1006.8
20260502053505 49 188 3.0 8.0 0.00 0.06 0.06 90 1006.4
20260502053005 48 227 3.0 5.0 0.00 0.06 0.06 90 1006.4
20260502052505 48 171 1.0 2.0 0.00 0.06 0.06 91 1006.8
20260502052005 48 212 0.0 2.0 0.00 0.06 0.06 91 1007.1
20260502051505 48 241 1.0 5.0 0.00 0.06 0.06 91 1007.1
20260502051005 48 233 2.0 5.0 0.00 0.06 0.06 91 1006.9
20260502050505 48 231 1.0 5.0 0.00 0.06 0.06 91 1006.8
20260502050005 49 229 1.0 8.0 0.00 0.06 0.06 91 1006.9
20260502045505 49 218 2.0 8.0 0.00 0.06 0.06 91 1007.0
20260502045005 49 206 2.0 5.0 0.00 0.06 0.06 91 1006.8
20260502044505 49 233 1.0 5.0 0.00 0.06 0.06 91 1007.1
20260502044005 49 247 2.0 5.0 0.00 0.06 0.06 92 1006.8
20260502043506 49 254 2.0 5.0 0.00 0.06 0.06 92 1007.1
20260502043005 49 223 2.0 5.0 0.00 0.06 0.06 92 1006.8
20260502041505 49 222 1.0 2.0 0.00 0.06 0.06 92 1007.1
20260502041005 49 197 1.0 2.0 0.00 0.06 0.06 92 1007.1
20260502040005 50 232 1.0 2.0 0.00 0.06 0.06 92 1007.1
20260502035005 50 211 0.0 2.0 0.00 0.06 0.06 92 1007.1
20260502034505 50 214 1.0 2.0 0.00 0.06 0.06 92 1007.1
20260502033506 50 208 0.0 2.0 0.00 0.06 0.06 92 1007.1
20260502033005 50 256 0.0 2.0 0.00 0.06 0.06 93 1007.1
20260502032505 50 217 1.0 2.0 0.00 0.06 0.06 93 1007.1
20260502032006 50 257 0.0 2.0 0.00 0.06 0.06 93 1007.1
20260502031505 51 208 0.0 2.0 0.00 0.06 0.06 93 1007.1
20260502031006 51 220 0.0 2.0 0.00 0.06 0.06 93 1007.1
20260502030505 51 233 0.0 2.0 0.00 0.06 0.06 93 1007.1
20260502030005 51 269 1.0 2.0 0.00 0.06 0.06 93 1007.1
20260502025505 51 228 0.0 0.0 0.00 0.06 0.06 93 1007.5
20260502025005 51 281 0.0 2.0 0.00 0.06 0.06 93 1007.5
20260502024005 52 155 0.0 2.0 0.00 0.06 0.06 92 1007.5
20260502023505 52 202 0.0 2.0 0.00 0.06 0.06 92 1007.5
20260502023005 52 238 1.0 2.0 0.00 0.06 0.06 93 1007.5
20260502022505 53 215 0.0 2.0 0.00 0.06 0.06 93 1007.5
20260502022005 53 245 0.0 2.0 0.00 0.06 0.06 92 1007.8
20260502021505 53 218 0.0 2.0 0.00 0.06 0.06 92 1007.5
20260502021005 53 241 0.0 0.0 0.00 0.06 0.06 92 1007.5
20260502020505 53 224 0.0 0.0 0.00 0.06 0.06 92 1007.6
20260502015505 53 269 0.0 0.0 0.00 0.06 0.06 92 1007.8
20260502015006 53 264 0.0 0.0 0.00 0.06 0.06 92 1007.8
20260502014505 53 251 0.0 0.0 0.00 0.06 0.06 92 1007.8
20260502013505 53 205 0.0 0.0 0.00 0.06 0.06 91 1007.8
20260502013006 53 302 0.0 0.0 0.00 0.06 0.06 91 1008.1
20260502012505 53 218 0.0 0.0 0.00 0.06 0.06 91 1008.1
20260502012005 53 182 0.0 0.0 0.00 0.06 0.06 91 1008.1
20260502011505 53 223 0.0 0.0 0.02 0.06 0.06 91 1008.1
20260502011005 53 297 0.0 0.0 0.04 0.06 0.06 90 1008.1
20260502010506 54 109 0.0 0.0 0.04 0.06 0.06 90 1008.1
20260502010005 54 299 0.0 0.0 0.05 0.06 0.06 90 1008.5
20260502005505 54 283 0.0 0.0 0.06 0.06 0.06 90 1008.5
20260502004505 54 273 0.0 0.0 0.06 0.06 0.06 89 1008.5
20260502004005 54 244 0.0 0.0 0.06 0.06 0.06 89 1008.5
20260502003505 54 72 0.0 0.0 0.06 0.06 0.06 88 1008.5
20260502003005 55 207 0.0 0.0 0.06 0.06 0.06 88 1008.5
20260502002505 55 285 0.0 0.0 0.06 0.06 0.06 88 1008.5
20260502002005 55 213 0.0 0.0 0.06 0.06 0.06 87 1008.8
20260502001005 55 217 0.0 2.0 0.02 0.02 0.02 86 1008.5
20260502000505 55 291 1.0 2.0 0.02 0.02 0.02 85 1008.5
20260501235504 56 302 1.0 2.0 0.00 0.00 0.00 82 1008.5
20260501235005 56 212 0.0 0.0 0.00 0.00 0.00 81 1008.5
20260501234505 56 252 0.0 2.0 0.00 0.00 0.00 81 1008.8
20260501234005 56 224 0.0 2.0 0.00 0.00 0.00 81 1008.8
20260501233505 56 259 0.0 0.0 0.00 0.00 0.00 80 1008.5
20260501233005 56 200 0.0 2.0 0.00 0.00 0.00 80 1008.8
20260501232504 56 263 0.0 2.0 0.00 0.00 0.00 80 1008.5
20260501231505 56 296 1.0 2.0 0.00 0.00 0.00 79 1008.8
20260501231005 56 276 0.0 2.0 0.00 0.00 0.00 79 1008.8
20260501230506 56 297 1.0 2.0 0.00 0.00 0.00 78 1008.8
20260501225505 57 266 0.0 2.0 0.00 0.00 0.00 77 1008.6
20260501225005 57 283 0.0 2.0 0.00 0.00 0.00 77 1008.5
20260501224505 57 268 0.0 2.0 0.00 0.00 0.00 77 1008.5
20260501223505 57 247 0.0 2.0 0.00 0.00 0.00 77 1008.5
20260501223005 57 302 0.0 2.0 0.00 0.00 0.00 77 1008.5
20260501222505 57 304 1.0 5.0 0.00 0.00 0.00 77 1008.8
20260501222005 57 307 2.0 5.0 0.00 0.00 0.00 77 1008.8
20260501221504 57 302 0.0 2.0 0.00 0.00 0.00 77 1008.5
20260501221005 57 288 0.0 2.0 0.00 0.00 0.00 77 1008.5
20260501220505 57 277 1.0 2.0 0.00 0.00 0.00 77 1008.5
20260501220006 57 233 0.0 0.0 0.00 0.00 0.00 76 1008.5
20260501215505 57 211 0.0 2.0 0.00 0.00 0.00 76 1008.5
20260501215005 57 287 0.0 2.0 0.00 0.00 0.00 76 1008.8
20260501213505 57 248 0.0 0.0 0.00 0.00 0.00 76 1008.8
20260501212505 58 305 0.0 2.0 0.00 0.00 0.00 75 1008.8
20260501212005 58 292 1.0 5.0 0.00 0.00 0.00 75 1008.8
20260501211505 58 312 2.0 5.0 0.00 0.00 0.00 75 1008.8
20260501211005 58 288 2.0 5.0 0.00 0.00 0.00 74 1008.8
20260501210505 58 335 0.0 0.0 0.00 0.00 0.00 74 1008.8
20260501205504 58 214 0.0 2.0 0.00 0.00 0.00 73 1009.1
20260501205005 59 330 0.0 2.0 0.00 0.00 0.00 73 1008.8
20260501204505 59 269 0.0 2.0 0.00 0.00 0.00 73 1008.8
20260501204005 59 235 0.0 2.0 0.00 0.00 0.00 72 1008.8
20260501203505 59 312 1.0 2.0 0.00 0.00 0.00 72 1008.8
20260501203005 59 188 0.0 0.0 0.00 0.00 0.00 71 1008.8
20260501202505 59 262 0.0 2.0 0.00 0.00 0.00 70 1008.8
20260501201505 60 282 0.0 2.0 0.00 0.00 0.00 69 1008.8
20260501201005 60 277 1.0 5.0 0.00 0.00 0.00 69 1008.8
20260501200505 60 294 3.0 5.0 0.00 0.00 0.00 68 1008.5
20260501200005 60 284 0.0 5.0 0.00 0.00 0.00 68 1008.5
20260501195505 60 290 2.0 5.0 0.00 0.00 0.00 67 1008.5
20260501195006 60 287 1.0 5.0 0.00 0.00 0.00 68 1008.7
20260501194505 61 355 0.0 0.0 0.00 0.00 0.00 68 1008.6
20260501194005 61 51 1.0 2.0 0.00 0.00 0.00 67 1008.5
20260501193505 61 343 0.0 2.0 0.00 0.00 0.00 67 1008.5
20260501193005 61 318 0.0 2.0 0.00 0.00 0.00 67 1008.5
20260501192505 61 319 0.0 2.0 0.00 0.00 0.00 68 1008.5
20260501192006 61 328 0.0 2.0 0.00 0.00 0.00 68 1008.5
20260501191505 61 319 0.0 2.0 0.00 0.00 0.00 67 1008.5
20260501191005 61 302 0.0 0.0 0.00 0.00 0.00 67 1008.5
20260501190005 61 301 0.0 0.0 0.00 0.00 0.00 67 1008.5
20260501185505 61 260 0.0 0.0 0.00 0.00 0.00 67 1008.5
20260501185005 61 177 0.0 0.0 0.00 0.00 0.00 66 1008.5
20260501184505 61 177 0.0 0.0 0.00 0.00 0.00 66 1008.5
20260501183505 61 179 0.0 0.0 0.00 0.00 0.00 68 1008.5
20260501183005 61 296 0.0 2.0 0.00 0.00 0.00 67 1008.5
20260501182505 61 294 0.0 2.0 0.00 0.00 0.00 67 1008.1
20260501182005 61 267 0.0 2.0 0.00 0.00 0.00 68 1008.1
20260501181505 61 347 0.0 2.0 0.00 0.00 0.00 68 1008.5
20260501181005 61 302 0.0 2.0 0.00 0.00 0.00 69 1008.5
20260501180505 61 16 1.0 2.0 0.00 0.00 0.00 69 1008.1
20260501180005 61 319 0.0 2.0 0.00 0.00 0.00 69 1008.1
20260501175506 61 70 0.0 0.0 0.00 0.00 0.00 69 1008.1
20260501175005 61 292 0.0 5.0 0.00 0.00 0.00 69 1008.1
20260501174505 60 20 2.0 5.0 0.00 0.00 0.00 68 1008.1
20260501173505 60 319 0.0 0.0 0.00 0.00 0.00 70 1008.1
20260501172505 61 64 0.0 0.0 0.00 0.00 0.00 72 1008.1